This demonstration page uses our WeatherBlox Daily Observations layout. Learn more.

Left ArrowRight Arrow

36.17497, -115.13722

Hourly Observations for August 22, 2020

Temp ( °F °C ) Dew Point ( °F °C ) Humidity (%) Winds ( mph kmh ) Pressure ( in mb ) Visibility ( mi km ) Precip ( " mm )
12:53 am 00:53 Clear 91 32.8 62 16.7 38 38 NNE 7 11 29.74 1007 10 16 N/A
1:53 am 01:53 Clear 92 33.3 61 16.1 36 36 E 7 11 29.73 1007 10 16 N/A
2:53 am 02:53 Clear 92 33.3 62 16.7 37 37 N 5 7 29.74 1007 10 16 N/A
3:53 am 03:53 Clear 90 32.2 63 17.2 41 41 N 6 9 29.76 1008 10 16 N/A
4:53 am 04:53 Clear 88 31.1 65 18.3 46 46 NE 7 11 29.78 1008 10 16 N/A
5:53 am 05:53 Clear 88 31.1 65 18.3 46 46 E 6 9 29.80 1009 10 16 N/A
6:53 am 06:53 Sunny 88 31.1 66 18.9 48 48 NNE 7 11 29.82 1010 10 16 N/A
7:53 am 07:53 Sunny 89 31.7 64 17.8 43 43 ESE 9 15 29.84 1010 10 16 N/A
8:53 am 08:53 Sunny 92 33.3 64 17.8 40 40 E 10 17 29.85 1011 10 16 N/A
9:53 am 09:53 Sunny 95 35 65 18.3 37 37 SE 16 26 29.86 1011 10 16 N/A
10:53 am 10:53 Sunny 97 36.1 65 18.3 35 35 E 13 20 29.87 1011 10 16 N/A
11:53 am 11:53 Sunny 98 36.7 64 17.8 33 33 E 7 11 29.85 1011 10 16 N/A
12:53 pm 12:53 Sunny 100 37.8 62 16.7 29 29 S 5 7 29.83 1010 10 16 N/A
1:53 pm 13:53 Sunny 102 38.9 62 16.7 27 27 VRB 3 6 29.80 1009 10 16 N/A
2:53 pm 14:53 Sunny 103 39.4 59 15 24 24 SE 10 17 29.78 1008 10 16 N/A
3:53 pm 15:53 Sunny 104 40 60 15.6 24 24 E 5 7 29.76 1008 10 16 N/A
4:53 pm 16:53 Sunny 105 40.6 60 15.6 23 23 NW 9 15 29.76 1008 10 16 N/A
5:53 pm 17:53 Sunny 103 39.4 49 9.4 16 16 N 7 11 29.75 1008 10 16 N/A
6:53 pm 18:53 Sunny 102 38.9 52 11.1 19 19 N 5 7 29.74 1007 10 16 N/A
7:53 pm 19:53 Clear 100 37.8 50 10 18 18 SSW 9 15 29.76 1008 10 16 N/A
8:53 pm 20:53 Clear 98 36.7 50 10 20 20 SW 6 9 29.78 1008 10 16 N/A
9:53 pm 21:53 Clear 95 35 50 10 22 22 E 8 13 29.79 1009 10 16 N/A
10:53 pm 22:53 Clear 93 33.9 50 10 23 23 SE 3 6 29.80 1009 10 16 N/A
11:53 pm 23:53 Clear 92 33.3 52 11.1 26 26 N N/A 29.80 1009 10 16 N/A

Powered by AerisWeather